Regional Weather Roundup
Issued by NWS

Home | Current Version | Previous Version | Graphics & Text | Print | Product List | Glossary On
Versions: 1 2 3 4 5 6 7 8 9 10 11 12 13 14 15 16 17 18 19 20 21 22 23 24 25 26 27 28 29 30 31 32 33 34 35 36 37 38 39 40 41 42 43 44 45 46 47 48 49 50
000
ASUS43 KBIS 311110
RWRND

NORTH DAKOTA REGIONAL WEATHER ROUNDUP
NATIONAL WEATHER SERVICE BISMARCK ND
600 AM CDT MON AUG 31 2015

NOTE: "FAIR" INDICATES FEW OR NO CLOUDS BELOW 12,000 FEET WITH NO
SIGNIFICANT WEATHER AND/OR OBSTRUCTIONS TO VISIBILITY.


NDZ001>003-009>011-017-311200-
NORTHWEST NORTH DAKOTA

CITY           SKY/WX    TMP DP  RH WIND       PRES   REMARKS
WILLISTON        N/A    N/A N/A N/A MISG      29.79R
MINOT          LGT RAIN  62  59  90 N5        29.68F
MINOT AFB      CLOUDY    63  63 100 CALM      29.69S
$$

NDZ018>021-031>035-040>046-311200-
SOUTHWEST NORTH DAKOTA

CITY           SKY/WX    TMP DP  RH WIND       PRES   REMARKS
BISMARCK       CLOUDY    69  57  65 N13       29.69R
DICKINSON      MOCLDY    60  57  89 W13       29.79R
GARRISON         N/A     63  58  83 CALM      29.71R
HETTINGER ARPT MOCLDY    61  52  72 NW12      29.81R
$$

NDZ004>008-012>016-024-026-027-054-311200-
NORTHEAST NORTH DAKOTA

CITY           SKY/WX    TMP DP  RH WIND       PRES   REMARKS
GRAND FORKS    PTCLDY    65  61  87 S9        29.63F
GRND FRKS AFB  PTCLDY    64  63  95 S9        29.63F
DEVILS LAKE    CLOUDY    70  63  78 CALM      29.64R
$$

NDZ022-023-025-028>030-036>039-047>053-311200-
SOUTHEAST NORTH DAKOTA

CITY           SKY/WX    TMP DP  RH WIND       PRES   REMARKS
FARGO          CLEAR     66  59  78 SE15G28   29.65F
JAMESTOWN      MOCLDY    66  63  90 S12       29.66R
$$




USA.gov is the U.S. government's official web portal to all federal, state and local government web resources and services.